This is the latest recevied weather packets stored in our database for station/object AE6BH. If no packets are shown the sender has not sent any weather packets the latest 10 day(s).
| Time | Temp. | Humidity | Pressure | Rain* | Wind** | Luminosity | Snow |
|---|---|---|---|---|---|---|---|
| 1778274207 | 26.11° C | 48% | 1014.6 hPa | 0 mm | - | 748 W/m² | - |
| 1778273904 | 26.11° C | 48% | 1014.5 hPa | 0 mm | - | 752 W/m² | - |
| 1778273601 | 26.11° C | 48% | 1014.4 hPa | 0 mm | - | 775 W/m² | - |
| 1778273297 | 25.56° C | 50% | 1014.7 hPa | 0 mm | - | 789 W/m² | - |
| 1778272994 | 25.56° C | 49% | 1014.7 hPa | 0 mm | - | 790 W/m² | - |
| 1778272690 | 26.11° C | 49% | 1014.6 hPa | 0 mm | - | 754 W/m² | - |
| 1778272386 | 26.11° C | 49% | 1014.6 hPa | 0 mm | - | 760 W/m² | - |
| 1778272082 | 26.11° C | 48% | 1014.6 hPa | 0 mm | - | 722 W/m² | - |
| 1778271779 | 26.11° C | 49% | 1014.6 hPa | 0 mm | - | 693 W/m² | - |
| 1778271476 | 26.11° C | 48% | 1014.6 hPa | 0 mm | - | 728 W/m² | - |
| 1778271173 | 25.56° C | 48% | 1014.9 hPa | 0 mm | - | 756 W/m² | - |
| 1778270870 | 26.11° C | 48% | 1014.7 hPa | 0 mm | - | 753 W/m² | - |
| 1778270566 | 26.11° C | 47% | 1014.8 hPa | 0 mm | - | 747 W/m² | - |
| 1778270262 | 26.67° C | 46% | 1014.9 hPa | 0 mm | - | 751 W/m² | - |
| 1778269959 | 25.56° C | 49% | 1014.9 hPa | 0 mm | - | 740 W/m² | - |
| 1778269655 | 26.11° C | 48% | 1015 hPa | 0 mm | - | 749 W/m² | - |
| 1778269353 | 25° C | 50% | 1015.1 hPa | 0 mm | - | 754 W/m² | - |
| 1778269050 | 25.56° C | 50% | 1015.3 hPa | 0 mm | - | 761 W/m² | - |
| 1778268746 | 24.44° C | 51% | 1015.3 hPa | 0 mm | - | 749 W/m² | - |
| 1778268443 | 25° C | 51% | 1015.3 hPa | 0 mm | - | 755 W/m² | - |
| 1778268140 | 25° C | 50% | 1015.6 hPa | 0 mm | - | 763 W/m² | - |
| 1778267837 | 25° C | 52% | 1015.5 hPa | 0 mm | - | 762 W/m² | - |
| 1778267534 | 24.44° C | 53% | 1015.7 hPa | 0 mm | - | 761 W/m² | - |
| 1778267231 | 24.44° C | 52% | 1015.6 hPa | 0 mm | - | 760 W/m² | - |
| 1778266927 | 23.89° C | 52% | 1015.7 hPa | 0 mm | - | 778 W/m² | - |
* Rain latest hour (hover to see other rain measurements)
** Current wind speed in m/s (hover to see current wind gust speed)